UAE24E LEBL-OMDB

Flight info

Callsign UAE24E
Flight time N/A
Altitude 35000
Route LARPA N859 GENIO DCT LUXUR UM134 ANB UG6 DIMAO UL874 OMENI DCT SUDIK/N0479F370 DCT BONAR M980 LOSUL M855 MMA P751 DASUM Y234 FYM M872 MEDRO/N0483F390 M872 BDB Y214 RAPMA DCT KUVSO DCT KATIT DCT PEKEM M628 RIGIL G783 ELUDA/N0491F350 G783 ASPED Q308 KIPOK Q568 IMPED
Aircraft B77L/H-SDE1E2E3FGHIJ2J3J4J5M1RWXY/LB1D1

Departure

Time N/A
Airport Josep Tarradellas Barcelona-El Prat Airport (LEBL)

Arrival

Time 2026-04-25 00:40
Airport Dubai International Airport (OMDB)
Time Latitude Longitude Altitude Speed Heading
2026-04-24 18:54 37.40630 6.00555 35088 ft 508 kts 110°
2026-04-24 18:55 37.36799 6.12988 35086 ft 508 kts 110°
2026-04-24 18:56 37.34237 6.21272 35089 ft 509 kts 110°
2026-04-24 18:56 37.31666 6.29561 35085 ft 509 kts 110°
2026-04-24 18:57 37.29086 6.37856 35088 ft 510 kts 110°
2026-04-24 18:57 37.26499 6.46148 35087 ft 510 kts 110°
2026-04-24 18:58 37.23904 6.54441 35087 ft 511 kts 110°
2026-04-24 18:58 37.21299 6.62741 35085 ft 511 kts 110°
2026-04-24 18:59 37.18705 6.70984 35087 ft 512 kts 110°
2026-04-24 18:59 37.16068 6.79340 35086 ft 512 kts 110°
2026-04-24 19:00 37.13439 6.87643 35088 ft 513 kts 110°
2026-04-24 19:00 37.10819 6.95896 35084 ft 513 kts 110°
2026-04-24 19:01 37.08171 7.04212 35085 ft 514 kts 110°
2026-04-24 19:01 37.05516 7.12528 35084 ft 515 kts 110°
2026-04-24 19:02 37.03282 7.19504 35093 ft 515 kts 110°
2026-04-24 19:02 37.00178 7.29172 35092 ft 516 kts 110°
2026-04-24 19:03 36.97496 7.37502 35081 ft 516 kts 110°
2026-04-24 19:03 36.94803 7.45836 35080 ft 517 kts 110°
2026-04-24 19:04 36.92106 7.54167 35071 ft 517 kts 110°
2026-04-24 19:04 36.89401 7.62492 35068 ft 518 kts 110°
2026-04-24 19:05 36.86688 7.70827 35041 ft 518 kts 110°
2026-04-24 19:05 36.83711 7.79008 35037 ft 519 kts 119°
2026-04-24 19:06 36.79557 7.86377 35056 ft 520 kts 131°
2026-04-24 19:06 36.74555 7.92900 35061 ft 520 kts 135°
2026-04-24 19:07 36.69483 7.99343 35066 ft 521 kts 134°
2026-04-24 19:07 36.65287 8.04739 35046 ft 521 kts 134°
2026-04-24 19:08 36.59411 8.12346 35072 ft 522 kts 134°
2026-04-24 19:08 36.54376 8.18854 35076 ft 522 kts 134°
2026-04-24 19:09 36.49368 8.25308 35067 ft 522 kts 134°
2026-04-24 19:09 36.44336 8.31812 35071 ft 521 kts 131°
2026-04-24 19:09 36.42163 8.35404 35075 ft 520 kts 120°
2026-04-24 19:10 36.40491 8.39369 35071 ft 519 kts 111°
2026-04-24 19:10 36.38539 8.47921 35077 ft 514 kts 98°
2026-04-24 19:11 36.37263 8.56663 35063 ft 515 kts 97°
2026-04-24 19:11 36.35942 8.65417 35064 ft 517 kts 98°
2026-04-24 19:12 36.34551 8.74184 35059 ft 519 kts 98°
2026-04-24 19:12 36.33130 8.82971 35063 ft 520 kts 98°
2026-04-24 19:13 36.31945 8.90284 35059 ft 521 kts 98°
2026-04-24 19:13 36.30274 9.00572 35067 ft 521 kts 98°
2026-04-24 19:14 36.28839 9.09375 35078 ft 521 kts 98°
2026-04-24 19:14 36.27394 9.18188 35084 ft 522 kts 98°
2026-04-24 19:15 36.25943 9.27000 35079 ft 522 kts 98°
2026-04-24 19:15 36.24794 9.34340 35088 ft 521 kts 96°
2026-04-24 19:16 36.23244 9.47657 35098 ft 521 kts 95°
2026-04-24 19:16 36.22232 9.56539 35100 ft 521 kts 95°
2026-04-24 19:17 36.21187 9.65412 35119 ft 521 kts 95°
2026-04-24 19:17 36.20124 9.74290 35110 ft 521 kts 95°
2026-04-24 19:18 36.19060 9.83130 35112 ft 520 kts 95°
2026-04-24 19:18 36.17987 9.92004 35120 ft 520 kts 95°
2026-04-24 19:19 36.16913 10.00837 35119 ft 519 kts 95°
2026-04-24 19:19 36.15833 10.09665 35123 ft 519 kts 95°
2026-04-24 19:20 36.14252 10.18395 35112 ft 523 kts 105°
2026-04-24 19:20 36.11887 10.26897 35115 ft 523 kts 107°
2026-04-24 19:21 36.09561 10.35417 35105 ft 523 kts 105°
2026-04-24 19:21 36.07698 10.44059 35115 ft 518 kts 96°
2026-04-24 19:22 36.07022 10.52877 35109 ft 514 kts 88°
2026-04-24 19:22 36.06833 10.61705 35120 ft 514 kts 88°
2026-04-24 19:23 36.06624 10.70533 35121 ft 514 kts 88°
2026-04-24 19:23 36.06370 10.79358 35129 ft 514 kts 88°
2026-04-24 19:24 36.06097 10.88171 35139 ft 513 kts 89°
2026-04-24 19:24 36.05819 10.96987 35144 ft 513 kts 89°
2026-04-24 19:25 36.05537 11.05783 35143 ft 512 kts 89°
2026-04-24 19:25 36.05251 11.14561 35147 ft 511 kts 89°
2026-04-24 19:26 36.04958 11.23330 35146 ft 510 kts 89°
2026-04-24 19:26 36.04659 11.32093 35146 ft 510 kts 89°
2026-04-24 19:27 36.04380 11.40835 35144 ft 509 kts 89°
2026-04-24 19:27 36.04008 11.49572 35148 ft 510 kts 94°
2026-04-24 19:28 36.02607 11.58196 35151 ft 513 kts 101°
2026-04-24 19:28 36.00849 11.66736 35148 ft 513 kts 102°
2026-04-24 19:29 35.98242 11.79562 35146 ft 513 kts 101°
2026-04-24 19:30 35.96545 11.88056 35147 ft 513 kts 101°
2026-04-24 19:30 35.94836 11.96611 35145 ft 513 kts 101°
2026-04-24 19:31 35.93119 12.05161 35143 ft 513 kts 102°
2026-04-24 19:31 35.91394 12.13709 35137 ft 513 kts 102°
2026-04-24 19:32 35.89661 12.22260 35144 ft 513 kts 102°
2026-04-24 19:32 35.87923 12.30799 35142 ft 513 kts 102°
2026-04-24 19:33 35.86178 12.39341 35142 ft 513 kts 102°
2026-04-24 19:33 35.84430 12.47865 35138 ft 513 kts 102°
2026-04-24 19:34 35.82675 12.56388 35135 ft 513 kts 102°
2026-04-24 19:34 35.80927 12.64848 35142 ft 513 kts 102°
2026-04-24 19:35 35.79161 12.73357 35133 ft 512 kts 102°
2026-04-24 19:35 35.77392 12.81853 35133 ft 512 kts 102°
2026-04-24 19:36 35.75607 12.90392 35134 ft 512 kts 102°
2026-04-24 19:36 35.73827 12.98874 35141 ft 511 kts 102°
2026-04-24 19:37 35.72055 13.07285 35143 ft 511 kts 102°
2026-04-24 19:37 35.70266 13.15744 35134 ft 511 kts 102°
2026-04-24 19:38 35.68473 13.24193 35137 ft 510 kts 103°
2026-04-24 19:38 35.66675 13.32635 35135 ft 510 kts 103°
2026-04-24 19:39 35.64874 13.41056 35141 ft 510 kts 103°
2026-04-24 19:39 35.63064 13.49489 35134 ft 510 kts 103°
2026-04-24 19:40 35.61252 13.57905 35130 ft 509 kts 103°
2026-04-24 19:40 35.59433 13.66318 35136 ft 509 kts 103°
2026-04-24 19:41 35.57609 13.74720 35136 ft 509 kts 103°
2026-04-24 19:41 35.55778 13.83127 35132 ft 509 kts 103°
2026-04-24 19:42 35.53945 13.91516 35134 ft 509 kts 103°
2026-04-24 19:42 35.52105 13.99902 35129 ft 509 kts 103°
2026-04-24 19:43 35.50259 14.08289 35129 ft 508 kts 103°
2026-04-24 19:43 35.48408 14.16666 35123 ft 508 kts 103°
2026-04-24 19:44 35.46553 14.25031 35123 ft 508 kts 103°
2026-04-24 19:44 35.44693 14.33390 35118 ft 508 kts 103°
2026-04-24 19:45 35.42830 14.41738 35118 ft 508 kts 103°
2026-04-24 19:45 35.40959 14.50092 35117 ft 507 kts 103°
2026-04-24 19:46 35.39138 14.58357 35116 ft 507 kts 103°
2026-04-24 19:46 35.37321 14.66782 35120 ft 507 kts 103°
2026-04-24 19:47 35.35515 14.75126 35116 ft 506 kts 103°
2026-04-24 19:47 35.33709 14.83406 35123 ft 506 kts 103°
2026-04-24 19:48 35.31883 14.91733 35121 ft 506 kts 103°
2026-04-24 19:48 35.29130 15.04226 35123 ft 506 kts 103°
2026-04-24 19:49 35.25445 15.20853 35123 ft 506 kts 103°
2026-04-24 19:50 35.21741 15.37448 35119 ft 506 kts 103°
2026-04-24 19:51 35.18946 15.49889 35111 ft 506 kts 103°
2026-04-24 19:52 35.16140 15.62318 35120 ft 506 kts 103°
2026-04-24 19:52 35.14261 15.70608 35111 ft 506 kts 103°
2026-04-24 19:53 35.12388 15.78838 35116 ft 506 kts 103°
2026-04-24 19:54 35.09550 15.91259 35111 ft 506 kts 103°
2026-04-24 19:54 35.07649 15.99540 35110 ft 507 kts 103°
2026-04-24 19:55 35.06374 16.05080 35114 ft 507 kts 103°
2026-04-24 19:55 35.03827 16.16108 35112 ft 507 kts 103°
2026-04-24 19:56 35.01909 16.24382 35108 ft 507 kts 104°
2026-04-24 19:56 34.99984 16.32654 35106 ft 507 kts 103°
2026-04-24 19:57 34.98059 16.40902 35099 ft 507 kts 104°
2026-04-24 19:57 34.96114 16.49205 35100 ft 507 kts 104°
2026-04-24 19:58 34.94500 16.56074 35104 ft 507 kts 104°
2026-04-24 19:58 34.92552 16.64343 35105 ft 508 kts 104°
2026-04-24 19:59 34.90598 16.72604 35100 ft 508 kts 104°
2026-04-24 19:59 34.88635 16.80879 35099 ft 508 kts 104°
2026-04-24 20:00 34.86667 16.89145 35100 ft 508 kts 104°
2026-04-24 20:00 34.84694 16.97408 35100 ft 508 kts 104°
2026-04-24 20:01 34.82714 17.05670 35096 ft 508 kts 104°
2026-04-24 20:01 34.80729 17.13926 35093 ft 508 kts 104°
2026-04-24 20:02 34.78738 17.22181 35099 ft 508 kts 104°
2026-04-24 20:02 34.76742 17.30429 35088 ft 509 kts 104°
2026-04-24 20:03 34.74739 17.38678 35090 ft 509 kts 104°
2026-04-24 20:03 34.72731 17.46922 35084 ft 509 kts 104°
2026-04-24 20:04 34.70717 17.55166 35085 ft 509 kts 104°
2026-04-24 20:04 34.68695 17.63412 35087 ft 509 kts 104°
2026-04-24 20:05 34.66670 17.71646 35084 ft 509 kts 104°
2026-04-24 20:05 34.64638 17.79883 35080 ft 509 kts 104°
2026-04-24 20:06 34.62599 17.88118 35078 ft 509 kts 104°
2026-04-24 20:06 34.60554 17.96354 35074 ft 509 kts 104°
2026-04-24 20:07 34.58851 18.03189 35072 ft 510 kts 104°
2026-04-24 20:07 34.56445 18.12822 35073 ft 510 kts 104°
2026-04-24 20:08 34.54383 18.21044 35075 ft 510 kts 104°
2026-04-24 20:08 34.52313 18.29276 35070 ft 510 kts 104°
2026-04-24 20:09 34.50250 18.37453 35067 ft 510 kts 104°
2026-04-24 20:09 34.48151 18.45743 35070 ft 511 kts 104°
2026-04-24 20:10 34.46061 18.53978 35067 ft 511 kts 104°
2026-04-24 20:10 34.43962 18.62218 35064 ft 512 kts 105°
2026-04-24 20:11 34.41872 18.70401 35065 ft 512 kts 105°
2026-04-24 20:11 34.39758 18.78649 35060 ft 513 kts 105°
2026-04-24 20:12 34.37636 18.86903 35063 ft 514 kts 105°
2026-04-24 20:12 34.35506 18.95169 35059 ft 515 kts 105°
2026-04-24 20:13 34.33326 19.03416 35060 ft 516 kts 108°
2026-04-24 20:13 34.30373 19.11356 35070 ft 518 kts 114°
2026-04-24 20:14 34.27176 19.19177 35058 ft 519 kts 115°
2026-04-24 20:14 34.23991 19.27017 35060 ft 520 kts 114°
2026-04-24 20:15 34.20824 19.34891 35061 ft 521 kts 114°
2026-04-24 20:15 34.17662 19.42772 35047 ft 522 kts 114°
2026-04-24 20:16 34.14490 19.50660 35048 ft 523 kts 114°
2026-04-24 20:16 34.11304 19.58556 35041 ft 524 kts 114°
2026-04-24 20:17 34.08106 19.66460 35038 ft 524 kts 114°
2026-04-24 20:17 34.03297 19.78310 35036 ft 525 kts 115°
2026-04-24 20:18 34.00081 19.86212 35035 ft 525 kts 115°
2026-04-24 20:18 33.96862 19.94105 35031 ft 525 kts 115°
2026-04-24 20:19 33.93635 20.01998 35029 ft 525 kts 115°
2026-04-24 20:19 33.90402 20.09886 35022 ft 525 kts 115°
2026-04-24 20:20 33.87170 20.17756 35021 ft 525 kts 115°
2026-04-24 20:20 33.83932 20.25621 35018 ft 525 kts 115°
2026-04-24 20:21 33.80686 20.33487 35017 ft 525 kts 115°
2026-04-24 20:21 33.77457 20.41296 35014 ft 525 kts 116°
2026-04-24 20:22 33.74179 20.49204 35011 ft 525 kts 116°
2026-04-24 20:22 33.70917 20.57054 35008 ft 525 kts 116°
2026-04-24 20:23 33.67672 20.64849 35005 ft 525 kts 116°
2026-04-24 20:23 33.64380 20.72737 35002 ft 525 kts 116°
2026-04-24 20:24 33.61106 20.80565 34997 ft 525 kts 116°
2026-04-24 20:24 33.57827 20.88386 34998 ft 524 kts 117°
2026-04-24 20:25 33.54547 20.96196 34997 ft 524 kts 117°
2026-04-24 20:25 33.51289 21.03933 34992 ft 524 kts 117°
2026-04-24 20:26 33.47977 21.11767 34989 ft 523 kts 117°
2026-04-24 20:26 33.44706 21.19492 34988 ft 523 kts 117°
2026-04-24 20:27 33.41412 21.27256 34984 ft 523 kts 117°
2026-04-24 20:27 33.38114 21.35014 34979 ft 523 kts 118°
2026-04-24 20:28 33.34792 21.42811 34978 ft 523 kts 118°
2026-04-24 20:28 33.31488 21.50549 34976 ft 523 kts 118°
2026-04-24 20:29 33.28175 21.58289 34971 ft 523 kts 118°
2026-04-24 20:29 33.24861 21.66017 34966 ft 523 kts 118°
2026-04-24 20:30 33.21539 21.73745 34965 ft 523 kts 119°
2026-04-24 20:30 33.18213 21.81465 34966 ft 523 kts 119°
2026-04-24 20:31 33.14882 21.89181 34963 ft 523 kts 119°
2026-04-24 20:31 33.11546 21.96891 34961 ft 523 kts 119°
2026-04-24 20:32 33.08204 22.04598 34956 ft 523 kts 119°
2026-04-24 20:32 33.04879 22.12249 34953 ft 523 kts 120°
2026-04-24 20:33 33.01526 22.19947 34948 ft 523 kts 120°
2026-04-24 20:33 32.98166 22.27647 34943 ft 523 kts 120°
2026-04-24 20:34 32.94806 22.35328 34952 ft 523 kts 120°
2026-04-24 20:34 32.91439 22.43008 34943 ft 523 kts 120°
2026-04-24 20:35 32.88068 22.50684 34923 ft 523 kts 120°
2026-04-24 20:35 32.84691 22.58353 34917 ft 523 kts 120°
2026-04-24 20:36 32.81883 22.64719 34920 ft 523 kts 120°
2026-04-24 20:36 32.77930 22.73662 34915 ft 523 kts 121°
2026-04-24 20:37 32.74546 22.81301 34910 ft 522 kts 121°
2026-04-24 20:37 32.71156 22.88935 34907 ft 522 kts 121°
2026-04-24 20:38 32.68338 22.95269 34901 ft 521 kts 121°
2026-04-24 20:38 32.64949 23.02872 34901 ft 521 kts 121°
2026-04-24 20:39 32.61531 23.10525 34895 ft 521 kts 121°
2026-04-24 20:39 32.58159 23.18058 34895 ft 521 kts 121°
2026-04-24 20:40 32.54760 23.25634 34895 ft 520 kts 122°
2026-04-24 20:40 32.51356 23.33207 34891 ft 520 kts 122°
2026-04-24 20:41 32.47953 23.40762 34889 ft 520 kts 122°
2026-04-24 20:41 32.44547 23.48308 34892 ft 519 kts 122°
2026-04-24 20:42 32.41137 23.55847 34889 ft 519 kts 122°
2026-04-24 20:42 32.37723 23.63380 34886 ft 519 kts 122°
2026-04-24 20:43 32.34306 23.70902 34886 ft 519 kts 122°
2026-04-24 20:43 32.30887 23.78414 34888 ft 519 kts 122°
2026-04-24 20:44 32.27469 23.85908 34886 ft 518 kts 122°
2026-04-24 20:44 32.24042 23.93407 34887 ft 518 kts 122°
2026-04-24 20:45 32.20616 24.00889 34882 ft 518 kts 122°
2026-04-24 20:45 32.17189 24.08357 34884 ft 518 kts 122°
2026-04-24 20:46 32.13755 24.15826 34883 ft 518 kts 122°
2026-04-24 20:46 32.10320 24.23282 34886 ft 518 kts 122°
2026-04-24 20:47 32.06874 24.30744 34887 ft 518 kts 122°
2026-04-24 20:47 32.03426 24.38199 34887 ft 518 kts 122°
2026-04-24 20:48 31.99969 24.45657 34884 ft 519 kts 122°
2026-04-24 20:48 31.96508 24.53108 34878 ft 519 kts 123°
2026-04-24 20:49 31.93037 24.60566 34887 ft 519 kts 123°
2026-04-24 20:49 31.89557 24.68028 34880 ft 520 kts 123°
2026-04-24 20:50 31.86074 24.75484 34877 ft 520 kts 123°
2026-04-24 20:50 31.82581 24.82945 34883 ft 520 kts 123°
2026-04-24 20:51 31.79088 24.90391 34874 ft 520 kts 123°
2026-04-24 20:51 31.75598 24.97817 34866 ft 519 kts 123°
2026-04-24 20:52 31.72109 25.05228 34862 ft 518 kts 123°
2026-04-24 20:52 31.69046 25.12899 34853 ft 522 kts 112°
2026-04-24 20:53 31.67223 25.21174 34852 ft 527 kts 101°
2026-04-24 20:53 31.66235 25.29710 34858 ft 527 kts 100°
2026-04-24 20:54 31.65282 25.38248 34854 ft 528 kts 101°
2026-04-24 20:54 31.64273 25.46769 34859 ft 528 kts 101°
2026-04-24 20:55 31.63228 25.55301 34857 ft 528 kts 101°
2026-04-24 20:55 31.62176 25.63836 34862 ft 529 kts 102°
2026-04-24 20:56 31.61122 25.72378 34857 ft 529 kts 102°
2026-04-24 20:56 31.60061 25.80932 34861 ft 530 kts 102°
2026-04-24 20:57 31.59003 25.89422 34859 ft 531 kts 102°
2026-04-24 20:57 31.57919 25.98073 34855 ft 532 kts 102°
2026-04-24 20:58 31.56475 26.06533 34858 ft 528 kts 108°
2026-04-24 20:58 31.54715 26.14848 34858 ft 529 kts 109°
2026-04-24 20:59 31.52936 26.23220 34853 ft 530 kts 108°
2026-04-24 20:59 31.51182 26.31612 34849 ft 530 kts 108°
2026-04-24 21:00 31.49437 26.40010 34856 ft 530 kts 108°
2026-04-24 21:00 31.47686 26.48404 34845 ft 530 kts 108°
2026-04-24 21:01 31.45927 26.56794 34855 ft 530 kts 109°
2026-04-24 21:01 31.44165 26.65169 34852 ft 530 kts 109°
2026-04-24 21:02 31.42402 26.73514 34842 ft 529 kts 109°
2026-04-24 21:02 31.40627 26.81888 34844 ft 528 kts 109°
2026-04-24 21:03 31.38856 26.90216 34848 ft 527 kts 109°
2026-04-24 21:03 31.37083 26.98527 34848 ft 526 kts 109°
2026-04-24 21:04 31.35308 27.06821 34854 ft 525 kts 109°
2026-04-24 21:04 31.33528 27.15098 34856 ft 524 kts 109°
2026-04-24 21:05 31.31039 27.23013 34854 ft 514 kts 121°
2026-04-24 21:05 31.27498 27.30196 34859 ft 506 kts 130°
2026-04-24 21:06 31.23496 27.36965 34856 ft 507 kts 131°
2026-04-24 21:06 31.19505 27.43768 34856 ft 508 kts 130°
2026-04-24 21:07 31.15541 27.50609 34854 ft 509 kts 130°
2026-04-24 21:07 31.11554 27.57445 34848 ft 509 kts 130°
2026-04-24 21:08 31.07501 27.64231 34853 ft 509 kts 130°
2026-04-24 21:08 31.03434 27.71004 34856 ft 510 kts 130°
2026-04-24 21:09 30.99369 27.77784 34864 ft 510 kts 130°
2026-04-24 21:09 30.95306 27.84561 34859 ft 510 kts 130°
2026-04-24 21:10 30.91239 27.91338 34865 ft 510 kts 130°
2026-04-24 21:10 30.87167 27.98111 34869 ft 510 kts 130°
2026-04-24 21:11 30.83091 28.04876 34868 ft 510 kts 130°
2026-04-24 21:11 30.79015 28.11631 34858 ft 510 kts 130°
2026-04-24 21:12 30.75626 28.17238 34853 ft 510 kts 130°
2026-04-24 21:12 30.70882 28.25073 34845 ft 510 kts 130°
2026-04-24 21:13 30.66798 28.31806 34844 ft 509 kts 130°
2026-04-24 21:13 30.62715 28.38526 34856 ft 509 kts 130°
2026-04-24 21:14 30.58627 28.45243 34867 ft 509 kts 130°
2026-04-24 21:14 30.54535 28.51955 34887 ft 509 kts 130°
2026-04-24 21:15 30.50439 28.58663 34892 ft 510 kts 130°
2026-04-24 21:15 30.46332 28.65376 34900 ft 510 kts 130°
2026-04-24 21:16 30.42232 28.72068 34888 ft 510 kts 130°
2026-04-24 21:16 30.38109 28.78785 34908 ft 511 kts 130°
2026-04-24 21:17 30.33989 28.85488 34904 ft 511 kts 130°
2026-04-24 21:17 30.30556 28.91064 34906 ft 511 kts 130°
2026-04-24 21:18 30.26425 28.97764 34909 ft 511 kts 130°
2026-04-24 21:18 30.22289 29.04464 34906 ft 512 kts 130°
2026-04-24 21:19 30.18144 29.11163 34905 ft 512 kts 130°
2026-04-24 21:19 30.13991 29.17858 34903 ft 513 kts 130°
2026-04-24 21:20 30.07821 29.27955 34899 ft 513 kts 129°
2026-04-24 21:21 30.03753 29.34735 34890 ft 513 kts 129°
2026-04-24 21:21 29.99680 29.41498 34893 ft 513 kts 129°
2026-04-24 21:22 29.95597 29.48245 34886 ft 512 kts 129°
2026-04-24 21:22 29.91513 29.54976 34889 ft 512 kts 129°
2026-04-24 21:23 29.87427 29.61700 34883 ft 512 kts 129°
2026-04-24 21:23 29.83370 29.68368 34876 ft 512 kts 129°
2026-04-24 21:24 29.79255 29.75119 34875 ft 511 kts 129°
2026-04-24 21:24 29.75192 29.81774 34872 ft 511 kts 129°
2026-04-24 21:25 29.71101 29.88464 34878 ft 511 kts 129°
2026-04-24 21:25 29.67003 29.95153 34879 ft 512 kts 129°
2026-04-24 21:26 29.62899 30.01842 34874 ft 512 kts 129°
2026-04-24 21:26 29.58795 30.08521 34874 ft 512 kts 129°
2026-04-24 21:27 29.54672 30.15221 34889 ft 513 kts 129°
2026-04-24 21:27 29.50548 30.21911 34882 ft 513 kts 129°
2026-04-24 21:28 29.46420 30.28597 34877 ft 513 kts 129°
2026-04-24 21:28 29.42288 30.35280 34854 ft 514 kts 130°
2026-04-24 21:29 29.37944 30.41682 34870 ft 508 kts 138°
2026-04-24 21:29 29.33037 30.47492 34874 ft 507 kts 139°
2026-04-24 21:30 29.28091 30.53276 34867 ft 508 kts 139°
2026-04-24 21:30 29.23166 30.59094 34869 ft 508 kts 139°
2026-04-24 21:31 29.18257 30.64924 34869 ft 509 kts 139°
2026-04-24 21:31 29.13340 30.70762 34868 ft 509 kts 139°
2026-04-24 21:32 29.08417 30.76594 34873 ft 509 kts 139°
2026-04-24 21:32 29.03490 30.82419 34868 ft 510 kts 139°
2026-04-24 21:33 28.98563 30.88236 34871 ft 510 kts 139°
2026-04-24 21:33 28.93630 30.94052 34882 ft 510 kts 139°
2026-04-24 21:34 28.88687 30.99870 34878 ft 510 kts 139°
2026-04-24 21:34 28.83738 31.05687 34878 ft 511 kts 139°
2026-04-24 21:35 28.78784 31.11504 34881 ft 512 kts 139°
2026-04-24 21:35 28.73826 31.17318 34883 ft 512 kts 139°
2026-04-24 21:36 28.68861 31.23147 34887 ft 513 kts 139°
2026-04-24 21:36 28.64046 31.29157 34890 ft 515 kts 137°
2026-04-24 21:37 28.59312 31.35217 34889 ft 515 kts 137°
2026-04-24 21:37 28.54528 31.41288 34887 ft 516 kts 137°
2026-04-24 21:38 28.49709 31.47348 34890 ft 516 kts 137°
2026-04-24 21:38 28.44878 31.53401 34889 ft 517 kts 137°
2026-04-24 21:39 28.40047 31.59449 34892 ft 517 kts 137°
2026-04-24 21:39 28.35209 31.65501 34888 ft 518 kts 137°
2026-04-24 21:40 28.30367 31.71549 34893 ft 518 kts 137°
2026-04-24 21:40 28.25520 31.77595 34895 ft 518 kts 138°
2026-04-24 21:41 28.20666 31.83639 34902 ft 518 kts 138°
2026-04-24 21:41 28.15809 31.89679 34905 ft 519 kts 138°
2026-04-24 21:42 28.10950 31.95715 34899 ft 519 kts 138°
2026-04-24 21:42 28.06085 32.01752 34905 ft 519 kts 137°
2026-04-24 21:43 28.01704 32.08322 34909 ft 528 kts 126°
2026-04-24 21:43 27.98159 32.15631 34924 ft 531 kts 122°
2026-04-24 21:44 27.94688 32.23006 34918 ft 531 kts 123°
2026-04-24 21:44 27.91198 32.30314 34917 ft 531 kts 123°
2026-04-24 21:45 27.87659 32.37636 34913 ft 531 kts 123°
2026-04-24 21:45 27.84106 32.44957 34926 ft 531 kts 123°
2026-04-24 21:46 27.80551 32.52276 34905 ft 531 kts 124°
2026-04-24 21:46 27.76991 32.59599 34901 ft 531 kts 124°
2026-04-24 21:47 27.73435 32.66904 34916 ft 531 kts 124°
2026-04-24 21:47 27.69868 32.74216 34915 ft 532 kts 124°
2026-04-24 21:48 27.66293 32.81532 34910 ft 532 kts 124°
2026-04-24 21:48 27.62713 32.88844 34908 ft 533 kts 124°
2026-04-24 21:49 27.59126 32.96158 34910 ft 533 kts 124°
2026-04-24 21:49 27.55535 33.03470 34909 ft 534 kts 124°
2026-04-24 21:50 27.51960 33.10737 34903 ft 534 kts 124°
2026-04-24 21:50 27.48331 33.18101 34902 ft 534 kts 124°
2026-04-24 21:51 27.44745 33.25366 34903 ft 534 kts 124°
2026-04-24 21:51 27.41134 33.32670 34908 ft 534 kts 124°
2026-04-24 21:52 27.37518 33.39971 34904 ft 534 kts 124°
2026-04-24 21:52 27.33900 33.47263 34897 ft 534 kts 124°
2026-04-24 21:53 27.30276 33.54560 34878 ft 534 kts 124°
2026-04-24 21:53 27.26650 33.61852 34858 ft 535 kts 125°
2026-04-24 21:54 27.23014 33.69152 34837 ft 535 kts 125°
2026-04-24 21:54 27.19374 33.76448 34823 ft 536 kts 125°
2026-04-24 21:55 27.16102 33.84013 34834 ft 542 kts 117°
2026-04-24 21:55 27.13353 33.91909 34835 ft 543 kts 116°
2026-04-24 21:56 27.10604 33.99802 34854 ft 543 kts 116°
2026-04-24 21:56 27.07795 34.07682 34871 ft 544 kts 117°
2026-04-24 21:57 27.04966 34.15563 34877 ft 544 kts 117°
2026-04-24 21:57 27.02141 34.23438 34876 ft 545 kts 117°
2026-04-24 21:58 26.99314 34.31324 34866 ft 545 kts 117°
2026-04-24 21:58 26.96504 34.39159 34860 ft 545 kts 117°
2026-04-24 21:59 26.93670 34.47051 34854 ft 546 kts 117°
2026-04-24 21:59 26.90829 34.54939 34844 ft 546 kts 117°
2026-04-24 22:00 26.87984 34.62826 34840 ft 546 kts 117°
2026-04-24 22:00 26.85132 34.70712 34837 ft 546 kts 117°
2026-04-24 22:01 26.82276 34.78599 34833 ft 546 kts 117°
2026-04-24 22:01 26.79413 34.86485 34819 ft 547 kts 117°
2026-04-24 22:02 26.76546 34.94368 34816 ft 547 kts 117°
2026-04-24 22:02 26.73664 35.02248 34811 ft 546 kts 118°
2026-04-24 22:03 26.70780 35.10104 34814 ft 546 kts 118°
2026-04-24 22:03 26.67912 35.17912 34814 ft 546 kts 118°
2026-04-24 22:04 26.65023 35.25763 34815 ft 545 kts 118°
2026-04-24 22:04 26.62134 35.33598 34812 ft 545 kts 118°
2026-04-24 22:05 26.59731 35.40106 34811 ft 545 kts 118°
2026-04-24 22:05 26.56838 35.47926 34809 ft 545 kts 118°
2026-04-24 22:06 26.53897 35.55716 34803 ft 544 kts 119°
2026-04-24 22:06 26.50912 35.63474 34806 ft 544 kts 119°
2026-04-24 22:07 26.47926 35.71232 34812 ft 544 kts 119°
2026-04-24 22:07 26.44945 35.78992 34806 ft 544 kts 119°
2026-04-24 22:08 26.41963 35.86751 34807 ft 544 kts 119°
2026-04-24 22:08 26.38969 35.94523 34814 ft 545 kts 120°
2026-04-24 22:09 26.35975 36.02281 34809 ft 545 kts 120°
2026-04-24 22:09 26.32972 36.10045 34800 ft 545 kts 120°
2026-04-24 22:10 26.29969 36.17794 34797 ft 545 kts 120°
2026-04-24 22:10 26.26962 36.25539 34797 ft 544 kts 120°
2026-04-24 22:11 26.23951 36.33282 34798 ft 544 kts 120°
2026-04-24 22:11 26.20942 36.41006 34801 ft 544 kts 120°
2026-04-24 22:12 26.17913 36.48724 34804 ft 542 kts 122°
2026-04-24 22:12 26.14425 36.56087 34807 ft 536 kts 127°
2026-04-24 22:13 26.10788 36.63337 34798 ft 537 kts 127°
2026-04-24 22:13 26.07168 36.70602 34801 ft 537 kts 126°
2026-04-24 22:14 26.03573 36.77883 34798 ft 538 kts 126°
2026-04-24 22:14 25.99978 36.85171 34804 ft 538 kts 126°
2026-04-24 22:15 25.96398 36.92409 34804 ft 538 kts 126°
2026-04-24 22:15 25.92789 36.99690 34813 ft 538 kts 126°
2026-04-24 22:16 25.89167 37.06984 34814 ft 539 kts 127°
2026-04-24 22:16 25.85546 37.14266 34818 ft 539 kts 127°
2026-04-24 22:17 25.81923 37.21544 34827 ft 539 kts 127°
2026-04-24 22:17 25.78292 37.28826 34826 ft 539 kts 127°
2026-04-24 22:18 25.74669 37.36099 34840 ft 538 kts 127°
2026-04-24 22:18 25.71046 37.43367 34841 ft 538 kts 127°
2026-04-24 22:19 25.67422 37.50626 34839 ft 538 kts 127°
2026-04-24 22:19 25.63792 37.57882 34852 ft 538 kts 127°
2026-04-24 22:20 25.60161 37.65128 34849 ft 537 kts 127°
2026-04-24 22:20 25.56531 37.72362 34842 ft 537 kts 127°
2026-04-24 22:21 25.52900 37.79586 34853 ft 537 kts 127°
2026-04-24 22:21 25.49265 37.86806 34851 ft 536 kts 127°
2026-04-24 22:22 25.45654 37.93968 34857 ft 536 kts 127°
2026-04-24 22:22 25.41992 38.01218 34850 ft 536 kts 127°
2026-04-24 22:23 25.38350 38.08420 34839 ft 536 kts 127°
2026-04-24 22:23 25.34737 38.15552 34849 ft 536 kts 127°
2026-04-24 22:24 25.31066 38.22786 34858 ft 536 kts 127°
2026-04-24 22:24 25.27415 38.29971 34854 ft 536 kts 127°
2026-04-24 22:25 25.23760 38.37154 34863 ft 537 kts 127°
2026-04-24 22:25 25.20104 38.44327 34863 ft 535 kts 128°
2026-04-24 22:26 25.16450 38.51488 34872 ft 535 kts 128°
2026-04-24 22:26 25.12795 38.58638 34875 ft 535 kts 128°
2026-04-24 22:27 25.09131 38.65798 34876 ft 535 kts 128°
2026-04-24 22:27 25.05492 38.72903 34897 ft 536 kts 127°
2026-04-24 22:28 25.01817 38.80062 34905 ft 536 kts 127°
2026-04-24 22:28 24.98143 38.87219 34907 ft 537 kts 127°
2026-04-24 22:29 24.92611 38.97932 34913 ft 536 kts 128°
2026-04-24 22:29 24.88905 39.05056 34924 ft 536 kts 128°
2026-04-24 22:30 24.85180 39.12219 34919 ft 536 kts 128°
2026-04-24 22:30 24.81499 39.19293 34941 ft 535 kts 128°
2026-04-24 22:31 24.77791 39.26405 34935 ft 535 kts 128°
2026-04-24 22:31 24.74081 39.33512 34941 ft 535 kts 127°
2026-04-24 22:32 24.70375 39.40608 34944 ft 535 kts 128°
2026-04-24 22:32 24.66667 39.47695 34936 ft 534 kts 128°
2026-04-24 22:33 24.62962 39.54767 34934 ft 533 kts 127°
2026-04-24 22:33 24.59268 39.61811 34935 ft 531 kts 128°
2026-04-24 22:34 24.55897 39.69090 34929 ft 542 kts 117°
2026-04-24 22:34 24.53918 39.77147 34934 ft 554 kts 103°
2026-04-24 22:35 24.53112 39.85584 34938 ft 556 kts 100°
2026-04-24 22:35 24.52414 39.94027 34949 ft 555 kts 100°
2026-04-24 22:36 24.51645 40.02456 34961 ft 554 kts 101°
2026-04-24 22:36 24.50823 40.10862 34964 ft 553 kts 101°
2026-04-24 22:37 24.49993 40.19253 34966 ft 552 kts 101°
2026-04-24 22:37 24.49166 40.27633 34965 ft 552 kts 101°
2026-04-24 22:38 24.48340 40.35995 34962 ft 551 kts 101°
2026-04-24 22:38 24.47510 40.44346 34971 ft 550 kts 101°
2026-04-24 22:39 24.46675 40.52694 34969 ft 549 kts 101°
2026-04-24 22:39 24.45838 40.61022 34962 ft 549 kts 101°
2026-04-24 22:40 24.45001 40.69352 34960 ft 549 kts 100°
2026-04-24 22:40 24.44163 40.77693 34969 ft 549 kts 100°
2026-04-24 22:41 24.43326 40.85973 34983 ft 549 kts 100°
2026-04-24 22:41 24.42616 40.92956 34965 ft 551 kts 100°
2026-04-24 22:42 24.41615 41.02748 34991 ft 560 kts 100°
2026-04-24 22:42 24.40740 41.11236 34971 ft 559 kts 101°
2026-04-24 22:43 24.39848 41.19704 34985 ft 558 kts 101°
2026-04-24 22:43 24.38951 41.28151 34987 ft 557 kts 101°
2026-04-24 22:44 24.38055 41.36577 34990 ft 555 kts 101°
2026-04-24 22:44 24.37158 41.44971 34997 ft 553 kts 101°
2026-04-24 22:45 24.36404 41.51990 34997 ft 552 kts 101°
2026-04-24 22:45 24.35503 41.60338 35003 ft 551 kts 101°
2026-04-24 22:46 24.34599 41.68670 35005 ft 549 kts 101°
2026-04-24 22:46 24.33694 41.76982 35010 ft 548 kts 101°
2026-04-24 22:47 24.32476 41.85191 35004 ft 541 kts 110°
2026-04-24 22:47 24.30394 41.93078 35015 ft 538 kts 112°
2026-04-24 22:48 24.28243 42.00942 35007 ft 538 kts 112°
2026-04-24 22:48 24.26133 42.08817 35013 ft 539 kts 111°
2026-04-24 22:49 24.24048 42.16708 35020 ft 539 kts 111°
2026-04-24 22:49 24.21975 42.24553 35018 ft 540 kts 111°
2026-04-24 22:50 24.19878 42.32457 35020 ft 540 kts 111°
2026-04-24 22:50 24.17773 42.40358 35031 ft 540 kts 111°
2026-04-24 22:51 24.15668 42.48248 35029 ft 539 kts 111°
2026-04-24 22:51 24.13565 42.56113 35036 ft 537 kts 111°
2026-04-24 22:52 24.11468 42.63938 35031 ft 535 kts 111°
2026-04-24 22:52 24.09373 42.71732 35034 ft 533 kts 111°
2026-04-24 22:53 24.07281 42.79503 35043 ft 532 kts 111°
2026-04-24 22:53 24.05188 42.87261 35050 ft 532 kts 111°
2026-04-24 22:54 24.03092 42.95017 35061 ft 532 kts 111°
2026-04-24 22:54 24.00988 43.02790 35058 ft 533 kts 111°
2026-04-24 22:55 23.98881 43.10566 35069 ft 534 kts 111°
2026-04-24 22:55 23.96768 43.18351 35068 ft 534 kts 111°
2026-04-24 22:56 23.94650 43.26133 35073 ft 534 kts 111°
2026-04-24 22:56 23.92529 43.33910 35078 ft 533 kts 111°
2026-04-24 22:57 23.90411 43.41661 35073 ft 532 kts 111°
2026-04-24 22:57 23.88293 43.49390 35075 ft 530 kts 111°
2026-04-24 22:58 23.86176 43.57100 35070 ft 528 kts 111°
2026-04-24 22:58 23.84064 43.64778 35070 ft 527 kts 111°
2026-04-24 22:59 23.81952 43.72440 35064 ft 526 kts 111°
2026-04-24 23:00 23.78781 43.83915 35067 ft 526 kts 111°
2026-04-24 23:00 23.77114 43.91722 35063 ft 532 kts 101°
2026-04-24 23:01 23.76485 43.99821 35077 ft 538 kts 97°
2026-04-24 23:01 23.75956 44.07982 35054 ft 538 kts 97°
2026-04-24 23:02 23.75380 44.16117 35056 ft 537 kts 98°
2026-04-24 23:02 23.74766 44.24242 35063 ft 537 kts 98°
2026-04-24 23:03 23.74142 44.32359 35059 ft 537 kts 98°
2026-04-24 23:03 23.73517 44.40485 35062 ft 538 kts 98°
2026-04-24 23:04 23.72889 44.48627 35061 ft 538 kts 98°
2026-04-24 23:04 23.72258 44.56762 35066 ft 538 kts 97°
2026-04-24 23:05 23.71622 44.64899 35057 ft 538 kts 97°
2026-04-24 23:05 23.70981 44.73029 35067 ft 537 kts 97°
2026-04-24 23:06 23.70338 44.81146 35049 ft 537 kts 97°
2026-04-24 23:06 23.69691 44.89263 35056 ft 537 kts 97°
2026-04-24 23:07 23.69037 44.97377 35035 ft 537 kts 97°
2026-04-24 23:07 23.68377 45.05498 35048 ft 537 kts 97°
2026-04-24 23:08 23.67714 45.13625 35046 ft 539 kts 97°
2026-04-24 23:08 23.67045 45.21768 35045 ft 539 kts 97°
2026-04-24 23:09 23.66372 45.29929 35034 ft 540 kts 97°
2026-04-24 23:09 23.65700 45.38049 35040 ft 541 kts 97°
2026-04-24 23:10 23.65019 45.46235 35036 ft 542 kts 97°
2026-04-24 23:10 23.64331 45.54428 35027 ft 543 kts 97°
2026-04-24 23:11 23.63640 45.62637 35019 ft 544 kts 97°
2026-04-24 23:11 23.62942 45.70858 35018 ft 545 kts 97°
2026-04-24 23:12 23.62240 45.79091 35016 ft 546 kts 97°
2026-04-24 23:12 23.61533 45.87336 35007 ft 546 kts 97°
2026-04-24 23:13 23.60821 45.95583 35001 ft 546 kts 97°
2026-04-24 23:13 23.60106 46.03827 35000 ft 546 kts 97°
2026-04-24 23:14 23.59387 46.12064 35002 ft 545 kts 97°
2026-04-24 23:14 23.58665 46.20278 35006 ft 544 kts 97°
2026-04-24 23:15 23.57941 46.28471 34998 ft 542 kts 97°
2026-04-24 23:15 23.57213 46.36642 35006 ft 541 kts 97°
2026-04-24 23:16 23.56484 46.44787 35006 ft 540 kts 97°
2026-04-24 23:16 23.55753 46.52922 35019 ft 539 kts 97°
2026-04-24 23:17 23.55009 46.61052 35018 ft 539 kts 97°
2026-04-24 23:17 23.54257 46.69188 35014 ft 540 kts 97°
2026-04-24 23:18 23.53499 46.77338 35005 ft 541 kts 97°
2026-04-24 23:18 23.52737 46.85490 35003 ft 541 kts 97°
2026-04-24 23:19 23.51972 46.93643 34995 ft 541 kts 97°
2026-04-24 23:19 23.51203 47.01796 34993 ft 540 kts 97°
2026-04-24 23:20 23.50435 47.09890 34985 ft 540 kts 97°
2026-04-24 23:20 23.49658 47.18033 34980 ft 540 kts 97°
2026-04-24 23:21 23.48876 47.26177 34977 ft 540 kts 97°
2026-04-24 23:21 23.48092 47.34307 34971 ft 539 kts 98°
2026-04-24 23:22 23.47305 47.42424 34969 ft 538 kts 98°
2026-04-24 23:22 23.46515 47.50529 34969 ft 538 kts 98°
2026-04-24 23:23 23.45725 47.58622 34959 ft 537 kts 98°
2026-04-24 23:23 23.44938 47.66701 34955 ft 536 kts 98°
2026-04-24 23:24 23.44149 47.74761 34950 ft 535 kts 98°
2026-04-24 23:24 23.43355 47.82808 34941 ft 534 kts 98°
2026-04-24 23:25 23.42559 47.90843 34941 ft 534 kts 98°
2026-04-24 23:25 23.41894 47.97519 34934 ft 533 kts 98°
2026-04-24 23:26 23.41090 48.05552 34931 ft 534 kts 98°
2026-04-24 23:26 23.40282 48.13587 34926 ft 534 kts 98°
2026-04-24 23:27 23.39468 48.21631 34918 ft 535 kts 98°
2026-04-24 23:27 23.38651 48.29681 34916 ft 535 kts 98°
2026-04-24 23:28 23.37986 48.37756 34911 ft 536 kts 94°
2026-04-24 23:28 23.37676 48.45880 34917 ft 537 kts 93°
2026-04-24 23:29 23.37398 48.54005 34909 ft 537 kts 94°
2026-04-24 23:29 23.37086 48.62076 34908 ft 537 kts 94°
2026-04-24 23:30 23.36748 48.70210 34906 ft 537 kts 94°
2026-04-24 23:30 23.36406 48.78333 34905 ft 537 kts 94°
2026-04-24 23:31 23.36063 48.86461 34911 ft 537 kts 94°
2026-04-24 23:31 23.35716 48.94588 34910 ft 537 kts 94°
2026-04-24 23:32 23.35366 49.02707 34897 ft 537 kts 94°
2026-04-24 23:32 23.34691 49.10799 34904 ft 536 kts 100°
2026-04-24 23:33 23.33516 49.18796 34899 ft 536 kts 101°
2026-04-24 23:33 23.32302 49.26806 34892 ft 536 kts 101°
2026-04-24 23:34 23.31121 49.34813 34894 ft 536 kts 101°
2026-04-24 23:34 23.29960 49.42829 34889 ft 537 kts 101°
2026-04-24 23:35 23.28798 49.50848 34892 ft 537 kts 101°
2026-04-24 23:35 23.27637 49.58819 34895 ft 537 kts 101°
2026-04-24 23:36 23.26463 49.66834 34890 ft 537 kts 101°
2026-04-24 23:36 23.25284 49.74845 34893 ft 537 kts 101°
2026-04-24 23:37 23.24102 49.82855 34897 ft 537 kts 101°
2026-04-24 23:37 23.22321 49.94871 34893 ft 536 kts 101°
2026-04-24 23:38 23.21129 50.02874 34890 ft 536 kts 101°
2026-04-24 23:38 23.19934 50.10872 34891 ft 536 kts 101°
2026-04-24 23:39 23.18735 50.18867 34894 ft 536 kts 101°
2026-04-24 23:39 23.17532 50.26855 34887 ft 536 kts 101°
2026-04-24 23:40 23.16334 50.34790 34889 ft 535 kts 101°
2026-04-24 23:40 23.15124 50.42775 34890 ft 535 kts 101°
2026-04-24 23:41 23.13910 50.50757 34890 ft 535 kts 101°
2026-04-24 23:41 23.12684 50.58789 34888 ft 535 kts 101°
2026-04-24 23:42 23.11471 50.66708 34889 ft 535 kts 101°
2026-04-24 23:42 23.10245 50.74681 34889 ft 535 kts 101°
2026-04-24 23:43 23.09018 50.82641 34891 ft 534 kts 101°
2026-04-24 23:43 23.07786 50.90602 34891 ft 534 kts 101°
2026-04-24 23:44 23.06551 50.98554 34884 ft 534 kts 101°
2026-04-24 23:44 23.05313 51.06500 34888 ft 534 kts 101°
2026-04-24 23:45 23.04071 51.14444 34885 ft 533 kts 101°
2026-04-24 23:45 23.02827 51.22378 34887 ft 533 kts 100°
2026-04-24 23:46 23.01579 51.30304 34885 ft 533 kts 100°
2026-04-24 23:46 23.00328 51.38229 34886 ft 532 kts 100°
2026-04-24 23:47 22.99073 51.46150 34885 ft 532 kts 100°
2026-04-24 23:47 22.97814 51.54070 34878 ft 532 kts 100°
2026-04-24 23:48 22.96551 51.61987 34883 ft 532 kts 100°
2026-04-24 23:48 22.95286 51.69894 34883 ft 532 kts 101°
2026-04-24 23:49 22.94016 51.77803 34883 ft 532 kts 100°
2026-04-24 23:49 22.92752 51.85652 34882 ft 532 kts 101°
2026-04-24 23:50 22.91476 51.93547 34885 ft 531 kts 100°
2026-04-24 23:50 22.90188 52.01491 34880 ft 531 kts 101°
2026-04-24 23:51 22.88913 52.09329 34881 ft 531 kts 101°
2026-04-24 23:51 22.87627 52.17215 34876 ft 531 kts 101°
2026-04-24 23:52 22.86337 52.25095 34878 ft 531 kts 101°
2026-04-24 23:52 22.85043 52.32974 34873 ft 530 kts 101°
2026-04-24 23:53 22.83748 52.40841 34873 ft 530 kts 101°
2026-04-24 23:53 22.82502 52.48725 34880 ft 530 kts 97°
2026-04-24 23:54 22.82089 52.56694 34882 ft 530 kts 91°
2026-04-24 23:54 22.81957 52.64678 34874 ft 530 kts 90°
2026-04-24 23:55 22.81800 52.72664 34877 ft 530 kts 91°
2026-04-24 23:55 22.81600 52.80643 34874 ft 529 kts 91°
2026-04-24 23:56 22.81382 52.88613 34870 ft 529 kts 91°
2026-04-24 23:56 22.81161 52.96577 34871 ft 528 kts 91°
2026-04-24 23:57 22.80939 53.04532 34872 ft 528 kts 91°
2026-04-24 23:57 22.80715 53.12477 34870 ft 527 kts 91°
2026-04-24 23:58 22.80488 53.20414 34870 ft 527 kts 91°
2026-04-24 23:58 22.80257 53.28294 34875 ft 526 kts 91°
2026-04-24 23:59 22.80022 53.36218 34873 ft 526 kts 91°
2026-04-24 23:59 22.79783 53.44127 34868 ft 525 kts 91°
2026-04-25 00:00 22.79539 53.52028 34869 ft 524 kts 91°
2026-04-25 00:00 22.79293 53.59921 34865 ft 524 kts 91°
2026-04-25 00:01 22.79043 53.67812 34869 ft 523 kts 91°
2026-04-25 00:01 22.78790 53.75693 34875 ft 523 kts 91°
2026-04-25 00:02 22.78532 53.83583 34868 ft 523 kts 91°
2026-04-25 00:02 22.78271 53.91456 34869 ft 523 kts 91°
2026-04-25 00:03 22.78267 53.99319 34874 ft 521 kts 85°
2026-04-25 00:03 22.79412 54.07057 34873 ft 520 kts 76°
2026-04-25 00:04 22.81029 54.14688 34872 ft 520 kts 76°
2026-04-25 00:04 22.82633 54.22329 34864 ft 520 kts 76°
2026-04-25 00:05 22.84193 54.29982 34867 ft 520 kts 76°
2026-04-25 00:05 22.85732 54.37635 34865 ft 520 kts 76°
2026-04-25 00:06 22.87269 54.45294 34865 ft 520 kts 76°
2026-04-25 00:06 22.88804 54.52954 34863 ft 520 kts 76°
2026-04-25 00:07 22.90338 54.60621 34861 ft 520 kts 76°
2026-04-25 00:07 22.91869 54.68293 34860 ft 521 kts 76°
2026-04-25 00:08 22.93400 54.75986 34857 ft 522 kts 76°
2026-04-25 00:08 22.94929 54.83688 34859 ft 523 kts 76°
2026-04-25 00:09 22.96198 54.90102 34860 ft 524 kts 76°
2026-04-25 00:09 22.97972 54.99086 34862 ft 524 kts 76°
2026-04-25 00:10 22.99249 55.05573 34861 ft 525 kts 76°
2026-04-25 00:10 23.00771 55.13321 34861 ft 525 kts 76°
2026-04-25 00:11 23.03272 55.20611 34861 ft 514 kts 51°
2026-04-25 00:11 23.05680 55.23433 34878 ft 507 kts 36°
2026-04-25 00:11 23.08549 55.25613 34867 ft 502 kts 25°
2026-04-25 00:12 23.11742 55.27042 34859 ft 490 kts 11°
2026-04-25 00:12 23.15043 55.27952 34880 ft 490 kts
2026-04-25 00:12 23.21695 55.29750 34878 ft 494 kts 10°
2026-04-25 00:13 23.28331 55.31644 34878 ft 498 kts 11°
2026-04-25 00:13 23.35025 55.33615 34875 ft 499 kts 11°
2026-04-25 00:14 23.41739 55.35596 34878 ft 500 kts 11°
2026-04-25 00:14 23.48453 55.37573 34871 ft 499 kts 11°
2026-04-25 00:15 23.55159 55.39551 34884 ft 499 kts 11°
2026-04-25 00:15 23.61852 55.41541 34884 ft 498 kts 11°
2026-04-25 00:16 23.68541 55.43533 34888 ft 498 kts 11°
2026-04-25 00:16 23.75231 55.45525 34894 ft 498 kts 11°
2026-04-25 00:17 23.81917 55.47519 34891 ft 498 kts 11°
2026-04-25 00:17 23.88611 55.49514 34892 ft 499 kts 11°
2026-04-25 00:18 23.95302 55.51504 34902 ft 499 kts 11°
2026-04-25 00:18 24.01755 55.54497 34299 ft 517 kts 27°
2026-04-25 00:19 24.04772 55.56713 33286 ft 526 kts 36°
2026-04-25 00:19 24.07529 55.59351 32222 ft 527 kts 40°
2026-04-25 00:19 24.10212 55.62084 31132 ft 528 kts 41°
2026-04-25 00:19 24.12890 55.64839 30213 ft 526 kts 41°
2026-04-25 00:20 24.15544 55.67550 29403 ft 519 kts 41°
2026-04-25 00:20 24.18189 55.70215 28606 ft 512 kts 41°
2026-04-25 00:20 24.20807 55.72826 27881 ft 506 kts 40°
2026-04-25 00:20 24.23398 55.75394 27185 ft 499 kts 40°
2026-04-25 00:21 24.25959 55.77930 26501 ft 493 kts 40°
2026-04-25 00:21 24.28486 55.80434 25838 ft 487 kts 40°
2026-04-25 00:21 24.30985 55.82915 25179 ft 482 kts 40°
2026-04-25 00:21 24.33455 55.85372 24523 ft 478 kts 40°
2026-04-25 00:22 24.35904 55.87809 23861 ft 473 kts 40°
2026-04-25 00:22 24.38334 55.90228 23151 ft 470 kts 40°
2026-04-25 00:22 24.40737 55.92627 22456 ft 465 kts 40°
2026-04-25 00:22 24.43110 55.94999 21801 ft 459 kts 40°
2026-04-25 00:23 24.45452 55.97340 21174 ft 453 kts 41°
2026-04-25 00:23 24.47736 55.99627 20568 ft 447 kts 41°
2026-04-25 00:23 24.50049 56.01942 19966 ft 441 kts 41°
2026-04-25 00:23 24.52306 56.04201 19364 ft 437 kts 41°
2026-04-25 00:24 24.54541 56.06439 18769 ft 433 kts 41°
2026-04-25 00:24 24.56756 56.08653 18154 ft 429 kts 41°
2026-04-25 00:24 24.59070 56.10650 17476 ft 421 kts 31°
2026-04-25 00:24 24.61657 56.12095 16872 ft 415 kts 21°
2026-04-25 00:25 24.64386 56.13050 16277 ft 409 kts 11°
2026-04-25 00:25 24.67174 56.13545 15702 ft 404 kts
2026-04-25 00:25 24.69947 56.13993 15119 ft 401 kts
2026-04-25 00:25 24.72694 56.14470 14546 ft 398 kts
2026-04-25 00:26 24.75418 56.14964 13980 ft 395 kts
2026-04-25 00:26 24.78127 56.15192 13355 ft 389 kts 356°
2026-04-25 00:26 24.80790 56.14783 12908 ft 382 kts 345°
2026-04-25 00:26 24.83260 56.13888 12674 ft 368 kts 333°
2026-04-25 00:27 24.85337 56.12345 12032 ft 365 kts 316°
2026-04-25 00:27 24.86980 56.10236 11535 ft 357 kts 302°
2026-04-25 00:27 24.88202 56.07935 11428 ft 339 kts 298°
2026-04-25 00:27 24.89307 56.05709 11358 ft 324 kts 297°
2026-04-25 00:28 24.90354 56.03568 11255 ft 310 kts 297°
2026-04-25 00:28 24.91352 56.01528 11143 ft 294 kts 297°
2026-04-25 00:28 24.92294 55.99614 10631 ft 278 kts 297°
2026-04-25 00:28 24.93211 55.97756 9851 ft 275 kts 297°
2026-04-25 00:29 24.94125 55.95911 8982 ft 273 kts 297°
2026-04-25 00:29 24.95031 55.94086 8163 ft 269 kts 297°
2026-04-25 00:29 24.95924 55.92290 7383 ft 265 kts 297°
2026-04-25 00:29 24.96805 55.90519 6666 ft 262 kts 298°
2026-04-25 00:30 24.97690 55.88741 6413 ft 267 kts 298°
2026-04-25 00:30 24.98581 55.86952 6238 ft 264 kts 298°
2026-04-25 00:30 24.99459 55.85189 6081 ft 262 kts 298°
2026-04-25 00:30 25.00331 55.83437 5843 ft 259 kts 298°
2026-04-25 00:31 25.01193 55.81705 5267 ft 257 kts 298°
2026-04-25 00:31 25.02045 55.79991 4606 ft 254 kts 298°
2026-04-25 00:31 25.02908 55.78258 4383 ft 260 kts 299°
2026-04-25 00:31 25.03778 55.76508 4216 ft 266 kts 299°
2026-04-25 00:32 25.04662 55.74729 4058 ft 261 kts 299°
2026-04-25 00:32 25.05517 55.73010 4028 ft 251 kts 299°
2026-04-25 00:32 25.06347 55.71338 3881 ft 244 kts 299°
2026-04-25 00:32 25.07148 55.69726 3305 ft 237 kts 299°
2026-04-25 00:33 25.07950 55.68111 2615 ft 244 kts 300°
2026-04-25 00:33 25.08763 55.66473 2416 ft 246 kts 300°
2026-04-25 00:33 25.09575 55.64838 2241 ft 238 kts 300°
2026-04-25 00:33 25.10353 55.63277 2047 ft 226 kts 301°
2026-04-25 00:34 25.11127 55.61867 2018 ft 210 kts 303°
2026-04-25 00:34 25.11903 55.60489 2019 ft 208 kts 303°
2026-04-25 00:34 25.12657 55.59146 2038 ft 205 kts 303°
2026-04-25 00:34 25.13408 55.57803 2032 ft 203 kts 302°
2026-04-25 00:35 25.14121 55.56527 2015 ft 193 kts 302°
2026-04-25 00:35 25.14796 55.55315 2003 ft 175 kts 302°
2026-04-25 00:35 25.15403 55.54226 2015 ft 159 kts 303°
2026-04-25 00:35 25.15971 55.53205 2013 ft 155 kts 303°
2026-04-25 00:36 25.16523 55.52215 2004 ft 147 kts 303°
2026-04-25 00:36 25.17054 55.51260 1989 ft 143 kts 303°
2026-04-25 00:36 25.17579 55.50317 1992 ft 144 kts 303°
2026-04-25 00:36 25.18103 55.49388 1997 ft 143 kts 304°
2026-04-25 00:37 25.18640 55.48438 1807 ft 146 kts 303°
2026-04-25 00:37 25.19165 55.47495 1637 ft 142 kts 303°
2026-04-25 00:37 25.19677 55.46570 1443 ft 141 kts 302°
2026-04-25 00:37 25.20189 55.45647 1271 ft 141 kts 302°
2026-04-25 00:38 25.20703 55.44719 1094 ft 142 kts 302°
2026-04-25 00:38 25.21218 55.43788 910 ft 142 kts 302°
2026-04-25 00:38 25.21735 55.42854 739 ft 143 kts 301°
2026-04-25 00:38 25.22256 55.41913 569 ft 144 kts 301°
2026-04-25 00:39 25.22778 55.40967 379 ft 144 kts 301°
2026-04-25 00:39 25.23300 55.40025 199 ft 144 kts 301°
2026-04-25 00:39 25.23818 55.39083 45 ft 142 kts 301°
2026-04-25 00:39 25.24293 55.38223 37 ft 116 kts 302°
2026-04-25 00:40 25.24633 55.37607 33 ft 72 kts 301°
2026-04-25 00:40 25.24779 55.37267 34 ft 27 kts 283°
2026-04-25 00:40 25.24786 55.37110 31 ft 5 kts 271°
2026-04-25 00:40 25.24787 55.37056 29 ft 9 kts 272°
2026-04-25 00:41 25.24788 55.37039 29 ft 0 kts 273°
2026-04-25 00:41 25.24797 55.36975 28 ft 25 kts 285°
2026-04-25 00:41 25.24873 55.36762 27 ft 30 kts 280°
2026-04-25 00:42 25.24956 55.36553 27 ft 30 kts 302°
2026-04-25 00:42 25.25066 55.36357 27 ft 30 kts 302°
2026-04-25 00:42 25.25176 55.36162 26 ft 30 kts 302°
2026-04-25 00:42 25.25286 55.35966 30 ft 30 kts 302°
2026-04-25 00:43 25.25396 55.35771 28 ft 30 kts 302°
2026-04-25 00:43 25.25507 55.35575 29 ft 30 kts 302°
2026-04-25 00:43 25.25616 55.35380 29 ft 30 kts 301°
2026-04-25 00:43 25.25653 55.35311 30 ft 6 kts 297°
2026-04-25 00:44 25.25632 55.35253 31 ft 9 kts 205°
2026-04-25 00:44 25.25567 55.35244 29 ft 10 kts 204°
2026-04-25 00:44 25.25522 55.35215 30 ft 2 kts 212°
2026-04-25 00:44 25.25505 55.35204 30 ft 4 kts 212°
2026-04-25 00:45 25.25501 55.35201 29 ft 0 kts 212°